Time,TemperatureF,DewpointF,PressureIn,WindDirection,WindDirectionDegrees,WindSpeedMPH,WindSpeedGustMPH,Humidity,HourlyPrecipIn,Conditions,Clouds,dailyrainin,SoftwareType,DateUTC
2013-08-25 00:12:00,54.0,37.0,-100.00,SSE,167,1.0,2.0,52,0.00,,,-99.99,,2013-08-25 07:12:00,
2013-08-25 00:22:00,54.0,36.0,-100.00,SSE,167,2.0,3.0,50,0.00,,,-99.99,,2013-08-25 07:22:00,
2013-08-25 00:32:00,54.0,36.0,-100.00,SSE,160,2.0,3.0,50,0.00,,,-99.99,,2013-08-25 07:32:00,
2013-08-25 00:52:00,53.0,36.0,-100.00,SSE,164,2.0,3.0,51,0.00,,,-99.99,,2013-08-25 07:52:00,
2013-08-25 01:12:00,53.0,35.0,-100.00,SSE,164,2.0,3.0,50,0.00,,,-99.99,,2013-08-25 08:12:00,
2013-08-25 01:21:00,53.0,35.0,-100.00,South,171,2.0,3.0,50,0.00,,,-99.99,,2013-08-25 08:21:00,
2013-08-25 01:32:00,53.0,35.0,-100.00,South,171,2.0,3.0,50,0.00,,,-99.99,,2013-08-25 08:32:00,
2013-08-25 01:42:00,53.0,35.0,-100.00,South,171,2.0,3.0,50,0.00,,,-99.99,,2013-08-25 08:42:00,
2013-08-25 01:52:00,53.0,34.0,-100.00,South,171,1.0,3.0,50,0.00,,,-99.99,,2013-08-25 08:52:00,
2013-08-25 02:01:00,53.0,34.0,-100.00,South,171,1.0,3.0,50,0.00,,,-99.99,,2013-08-25 09:01:00,
2013-08-25 02:11:00,53.0,34.0,-100.00,South,171,1.0,3.0,50,0.00,,,-99.99,,2013-08-25 09:11:00,
2013-08-25 02:44:00,52.0,33.0,-100.00,SSE,160,1.0,2.0,48,0.00,,,-99.99,,2013-08-25 09:44:00,
2013-08-25 02:55:00,52.0,33.0,-100.00,SSE,160,1.0,3.0,47,0.00,,,-99.99,,2013-08-25 09:55:00,
2013-08-25 03:03:00,52.0,33.0,-100.00,SSE,160,1.0,3.0,47,0.00,,,-99.99,,2013-08-25 10:03:00,
2013-08-25 03:22:00,53.0,30.0,-100.00,SE,134,1.0,3.0,41,0.00,,,-99.99,,2013-08-25 10:22:00,
2013-08-25 03:42:00,53.0,31.0,-100.00,SE,134,1.0,3.0,43,0.00,,,-99.99,,2013-08-25 10:42:00,
2013-08-25 03:53:00,52.0,32.0,-100.00,SE,137,1.0,3.0,45,0.00,,,-99.99,,2013-08-25 10:53:00,
2013-08-25 04:02:00,52.0,32.0,-100.00,SE,137,1.0,3.0,45,0.00,,,-99.99,,2013-08-25 11:02:00,
2013-08-25 04:22:00,51.0,33.0,-100.00,SE,140,1.0,2.0,48,0.00,,,-99.99,,2013-08-25 11:22:00,
2013-08-25 04:42:00,52.0,32.0,-100.00,SE,140,1.0,2.0,46,0.00,,,-99.99,,2013-08-25 11:42:00,
2013-08-25 04:52:00,52.0,32.0,-100.00,SE,138,1.0,3.0,46,0.00,,,-99.99,,2013-08-25 11:52:00,
2013-08-25 05:12:00,52.0,32.0,-100.00,SE,138,1.0,3.0,46,0.00,,,-99.99,,2013-08-25 12:12:00,
2013-08-25 05:22:00,52.0,31.0,-100.00,SE,143,2.0,3.0,44,0.00,,,-99.99,,2013-08-25 12:22:00,
2013-08-25 05:32:00,52.0,31.0,-100.00,SE,145,2.0,3.0,44,0.00,,,-99.99,,2013-08-25 12:32:00,
2013-08-25 05:52:00,53.0,32.0,-100.00,SE,145,2.0,3.0,43,0.00,,,-99.99,,2013-08-25 12:52:00,
2013-08-25 06:11:00,53.0,32.0,-100.00,SE,130,2.0,3.0,44,0.00,,,-99.99,,2013-08-25 13:11:00,
2013-08-25 06:21:00,53.0,32.0,-100.00,SE,130,2.0,3.0,44,0.00,,,-99.99,,2013-08-25 13:21:00,
2013-08-25 07:11:00,53.0,33.0,-100.00,SSE,152,1.0,3.0,45,0.00,,,-99.99,,2013-08-25 14:11:00,
2013-08-25 07:24:00,54.0,35.0,-100.00,ESE,119,1.0,3.0,48,0.00,,,-99.99,,2013-08-25 14:24:00,
2013-08-25 07:32:00,54.0,35.0,-100.00,ESE,119,1.0,3.0,48,0.00,,,-99.99,,2013-08-25 14:32:00,
2013-08-25 07:42:00,54.0,35.0,-100.00,ESE,119,1.0,3.0,48,0.00,,,-99.99,,2013-08-25 14:42:00,
2013-08-25 07:52:00,54.0,36.0,-100.00,South,169,1.0,2.0,50,0.00,,,-99.99,,2013-08-25 14:52:00,
2013-08-25 08:01:00,54.0,36.0,-100.00,South,169,1.0,2.0,50,0.00,,,-99.99,,2013-08-25 15:01:00,
2013-08-25 08:23:00,54.0,37.0,-100.00,SSE,165,1.0,2.0,51,0.00,,,-99.99,,2013-08-25 15:23:00,
2013-08-25 08:44:00,54.0,36.0,-100.00,SSE,164,1.0,2.0,51,0.00,,,-99.99,,2013-08-25 15:44:00,
2013-08-25 08:54:00,54.0,36.0,-100.00,SSE,164,1.0,2.0,51,0.00,,,-99.99,,2013-08-25 15:54:00,
2013-08-25 09:04:00,54.0,36.0,-100.00,ESE,109,1.0,3.0,51,0.00,,,-99.99,,2013-08-25 16:04:00,
2013-08-25 09:24:00,58.0,39.0,-100.00,ESE,109,1.0,3.0,48,0.00,,,-99.99,,2013-08-25 16:24:00,
2013-08-25 09:44:00,60.0,35.0,-100.00,ENE,68,1.0,4.0,39,0.00,,,-99.99,,2013-08-25 16:44:00,
2013-08-25 09:54:00,62.0,36.0,-100.00,East,80,3.0,15.0,37,0.00,,,-99.99,,2013-08-25 16:54:00,
2013-08-25 10:03:00,62.0,36.0,-100.00,NE,55,2.0,7.0,37,0.00,,,-99.99,,2013-08-25 17:03:00,
2013-08-25 10:22:00,63.0,36.0,-100.00,NE,55,2.0,7.0,37,0.00,,,-99.99,,2013-08-25 17:22:00,
2013-08-25 10:42:00,63.0,37.0,-100.00,NNW,333,2.0,7.0,38,0.00,,,-99.99,,2013-08-25 17:42:00,
2013-08-25 10:53:00,63.0,37.0,-100.00,NNW,333,2.0,7.0,38,0.00,,,-99.99,,2013-08-25 17:53:00,
2013-08-25 11:02:00,63.0,37.0,-100.00,NNW,333,2.0,7.0,38,0.00,,,-99.99,,2013-08-25 18:02:00,
2013-08-25 12:11:00,68.0,41.0,-100.00,NE,49,4.0,11.0,38,0.00,,,-99.99,,2013-08-25 19:11:00,
2013-08-25 12:22:00,66.0,41.0,-100.00,NE,45,5.0,9.0,39,0.00,,,-99.99,,2013-08-25 19:22:00,
2013-08-25 12:32:00,66.0,41.0,-100.00,NE,42,5.0,11.0,39,0.00,,,-99.99,,2013-08-25 19:32:00,
2013-08-25 12:53:00,67.0,39.0,-100.00,NE,41,6.0,11.0,36,0.00,,,-99.99,,2013-08-25 19:53:00,
2013-08-25 13:12:00,69.0,38.0,-100.00,NE,41,6.0,11.0,31,0.00,,,-99.99,,2013-08-25 20:12:00,
2013-08-25 13:23:00,69.0,39.0,-100.00,NE,40,5.0,10.0,34,0.00,,,-99.99,,2013-08-25 20:23:00,
2013-08-25 13:33:00,69.0,39.0,-100.00,NE,40,5.0,10.0,34,0.00,,,-99.99,,2013-08-25 20:33:00,
2013-08-25 13:43:00,69.0,39.0,-100.00,NE,40,5.0,10.0,34,0.00,,,-99.99,,2013-08-25 20:43:00,
2013-08-25 13:53:00,70.0,38.0,-100.00,NE,51,6.0,13.0,31,0.00,,,-99.99,,2013-08-25 20:53:00,
2013-08-25 14:01:00,70.0,38.0,-100.00,NE,51,6.0,13.0,31,0.00,,,-99.99,,2013-08-25 21:01:00,
2013-08-25 14:22:00,69.0,38.0,-100.00,NE,44,5.0,11.0,32,0.00,,,-99.99,,2013-08-25 21:22:00,
2013-08-25 14:43:00,71.0,39.0,-100.00,NE,41,5.0,15.0,31,0.00,,,-99.99,,2013-08-25 21:43:00,
2013-08-25 14:55:00,69.0,40.0,-100.00,NE,44,5.0,10.0,34,0.00,,,-99.99,,2013-08-25 21:55:00,
2013-08-25 15:03:00,69.0,40.0,-100.00,NE,37,5.0,11.0,34,0.00,,,-99.99,,2013-08-25 22:03:00,
2013-08-25 15:24:00,70.0,40.0,-100.00,NE,37,5.0,11.0,33,0.00,,,-99.99,,2013-08-25 22:24:00,
2013-08-25 15:43:00,69.0,40.0,-100.00,NE,54,7.0,14.0,35,0.00,,,-99.99,,2013-08-25 22:43:00,
2013-08-25 15:53:00,71.0,41.0,-100.00,NE,42,6.0,11.0,34,0.00,,,-99.99,,2013-08-25 22:53:00,
2013-08-25 16:02:00,71.0,41.0,-100.00,NE,44,5.0,12.0,34,0.00,,,-99.99,,2013-08-25 23:02:00,
2013-08-25 16:23:00,70.0,40.0,-100.00,NE,44,5.0,12.0,34,0.00,,,-99.99,,2013-08-25 23:23:00,
2013-08-25 16:33:00,70.0,40.0,-100.00,NE,44,5.0,12.0,34,0.00,,,-99.99,,2013-08-25 23:33:00,
2013-08-25 16:42:00,70.0,40.0,-100.00,NE,44,5.0,12.0,34,0.00,,,-99.99,,2013-08-25 23:42:00,
2013-08-25 17:11:00,69.0,39.0,-100.00,NE,45,5.0,11.0,33,0.00,,,-99.99,,2013-08-26 00:11:00,
2013-08-25 17:22:00,67.0,40.0,-100.00,NE,48,7.0,12.0,36,0.00,,,-99.99,,2013-08-26 00:22:00,
2013-08-25 17:32:00,67.0,40.0,-100.00,NE,41,5.0,11.0,36,0.00,,,-99.99,,2013-08-26 00:32:00,
2013-08-25 17:52:00,69.0,39.0,-100.00,NE,54,6.0,14.0,33,0.00,,,-99.99,,2013-08-26 00:52:00,
2013-08-25 18:11:00,68.0,38.0,-100.00,NE,54,6.0,14.0,33,0.00,,,-99.99,,2013-08-26 01:11:00,
2013-08-25 18:22:00,67.0,39.0,-100.00,NE,40,5.0,9.0,36,0.00,,,-99.99,,2013-08-26 01:22:00,
2013-08-25 18:32:00,67.0,39.0,-100.00,NE,44,5.0,10.0,36,0.00,,,-99.99,,2013-08-26 01:32:00,
2013-08-25 18:52:00,65.0,40.0,-100.00,NE,40,4.0,11.0,40,0.00,,,-99.99,,2013-08-26 01:52:00,
2013-08-25 19:11:00,65.0,39.0,-100.00,NE,40,4.0,11.0,39,0.00,,,-99.99,,2013-08-26 02:11:00,
2013-08-25 19:21:00,64.0,38.0,-100.00,NE,47,5.0,10.0,38,0.00,,,-99.99,,2013-08-26 02:21:00,
2013-08-25 19:32:00,64.0,38.0,-100.00,ENE,59,2.0,7.0,38,0.00,,,-99.99,,2013-08-26 02:32:00,
2013-08-25 19:52:00,62.0,40.0,-100.00,ENE,59,2.0,7.0,44,0.00,,,-99.99,,2013-08-26 02:52:00,
2013-08-25 20:02:00,62.0,40.0,-100.00,ENE,59,2.0,7.0,44,0.00,,,-99.99,,2013-08-26 03:02:00,
2013-08-25 20:11:00,62.0,40.0,-100.00,ENE,59,2.0,7.0,44,0.00,,,-99.99,,2013-08-26 03:11:00,
2013-08-25 20:44:00,61.0,40.0,-100.00,NE,56,2.0,4.0,47,0.00,,,-99.99,,2013-08-26 03:44:00,
2013-08-25 20:56:00,59.0,41.0,-100.00,ENE,68,1.0,5.0,51,0.00,,,-99.99,,2013-08-26 03:56:00,
2013-08-25 21:05:00,59.0,41.0,-100.00,ENE,68,1.0,5.0,51,0.00,,,-99.99,,2013-08-26 04:05:00,
2013-08-25 21:24:00,57.0,41.0,-100.00,ESE,112,1.0,3.0,55,0.00,,,-99.99,,2013-08-26 04:24:00,
2013-08-25 21:43:00,57.0,41.0,-100.00,SE,128,0.0,2.0,55,0.00,,,-99.99,,2013-08-26 04:43:00,
2013-08-25 21:53:00,55.0,40.0,-100.00,SE,140,1.0,2.0,57,0.00,,,-99.99,,2013-08-26 04:53:00,
2013-08-25 22:03:00,55.0,40.0,-100.00,SE,140,1.0,2.0,57,0.00,,,-99.99,,2013-08-26 05:03:00,
2013-08-25 22:22:00,55.0,41.0,-100.00,SSE,155,1.0,2.0,59,0.00,,,-99.99,,2013-08-26 05:22:00,
2013-08-25 22:33:00,55.0,41.0,-100.00,SSE,155,1.0,2.0,59,0.00,,,-99.99,,2013-08-26 05:33:00,
2013-08-25 22:43:00,55.0,41.0,-100.00,SSE,155,1.0,2.0,59,0.00,,,-99.99,,2013-08-26 05:43:00,
2013-08-25 23:12:00,54.0,42.0,-100.00,SSE,164,1.0,2.0,64,0.00,,,-99.99,,2013-08-26 06:12:00,
2013-08-25 23:21:00,53.0,42.0,-100.00,SSE,162,1.0,3.0,65,0.00,,,-99.99,,2013-08-26 06:21:00,
2013-08-25 23:32:00,53.0,42.0,-100.00,SSE,167,1.0,2.0,65,0.00,,,-99.99,,2013-08-26 06:32:00,
2013-08-25 23:52:00,53.0,42.0,-100.00,SSE,157,1.0,3.0,66,0.00,,,-99.99,,2013-08-26 06:52:00,